owner,sensor,date,latitude,longitude,vertical_datum,sea_water_temperature,qcFlag
BP,ioos:station:wmo:42907:1,2022-02-01T00:01:00Z,27.1507,-90.3072,15.6,22.2,11111222
BP,ioos:station:wmo:42907:1,2022-02-01T00:11:00Z,27.1507,-90.3072,15.5,22.2,11111222
BP,ioos:station:wmo:42907:1,2022-02-01T00:31:00Z,27.1507,-90.3072,15.4,22.2,11111222
BP,ioos:station:wmo:42907:1,2022-02-01T00:41:00Z,27.1507,-90.3072,15.4,22.1,11111222
BP,ioos:station:wmo:42907:1,2022-02-01T17:53:00Z,27.1507,-90.3072,15.3,22.9,11111222
BP,ioos:station:wmo:42907:1,2022-02-01T18:03:00Z,27.1507,-90.3072,15.2,22.9,11111222
BP,ioos:station:wmo:42907:1,2022-02-01T18:13:00Z,27.1507,-90.3072,15.1,22.9,11111222
BP,ioos:station:wmo:42907:1,2022-02-01T18:23:00Z,27.1507,-90.3072,15.1,22.9,11111222
BP,ioos:station:wmo:42907:1,2022-02-01T18:33:00Z,27.1507,-90.3072,15.4,22.8,11111222
BP,ioos:station:wmo:42907:1,2022-02-01T18:43:00Z,27.1507,-90.3072,15.4,22.8,11111222
BP,ioos:station:wmo:42907:1,2022-02-01T18:53:00Z,27.1507,-90.3072,15.4,22.7,11111222
BP,ioos:station:wmo:42907:1,2022-02-01T19:03:00Z,27.1507,-90.3072,15.4,22.7,11111222
BP,ioos:station:wmo:42907:1,2022-02-01T19:13:00Z,27.1507,-90.3072,15.4,22.7,11111222
BP,ioos:station:wmo:42907:1,2022-02-01T19:23:00Z,27.1507,-90.3072,15.4,22.6,11111222
BP,ioos:station:wmo:42907:1,2022-02-01T19:33:00Z,27.1507,-90.3072,15.5,22.6,11111222
BP,ioos:station:wmo:42907:1,2022-02-01T20:13:00Z,27.1507,-90.3072,15.5,22.5,11111222
BP,ioos:station:wmo:42907:1,2022-02-01T20:23:00Z,27.1507,-90.3072,15.6,22.5,11111222
BP,ioos:station:wmo:42907:1,2022-02-01T20:33:00Z,27.1507,-90.3072,15.6,22.5,11111222
BP,ioos:station:wmo:42907:1,2022-02-01T20:43:00Z,27.1507,-90.3072,15.6,22.5,11111222
BP,ioos:station:wmo:42907:1,2022-02-01T20:53:00Z,27.1507,-90.3072,15.7,22.5,11111222
BP,ioos:station:wmo:42907:1,2022-02-01T21:03:00Z,27.1507,-90.3072,15.8,22.4,11111222
BP,ioos:station:wmo:42907:1,2022-02-01T21:13:00Z,27.1507,-90.3072,15.9,22.4,11111222
BP,ioos:station:wmo:42907:1,2022-02-01T21:23:00Z,27.1507,-90.3072,15.7,22.4,11111222
BP,ioos:station:wmo:42907:1,2022-02-01T21:54:00Z,27.1507,-90.3072,15.7,22.3,11111222
BP,ioos:station:wmo:42907:1,2022-02-01T22:04:00Z,27.1507,-90.3072,15.7,22.3,11111222
BP,ioos:station:wmo:42907:1,2022-02-01T22:14:00Z,27.1507,-90.3072,15.7,22.2,11111222
BP,ioos:station:wmo:42907:1,2022-02-01T22:34:00Z,27.1507,-90.3072,15.8,22.1,11111222
BP,ioos:station:wmo:42907:1,2022-02-01T22:44:00Z,27.1507,-90.3072,15.8,22.1,11111222
BP,ioos:station:wmo:42907:1,2022-02-01T22:54:00Z,27.1507,-90.3072,15.7,22.0,11111222
BP,ioos:station:wmo:42907:1,2022-02-01T23:44:00Z,27.1507,-90.3072,15.4,22.0,11111222
BP,ioos:station:wmo:42907:1,2022-02-01T23:54:00Z,27.1507,-90.3072,15.4,22.0,11111222
BP,ioos:station:wmo:42907:1,2022-02-02T00:04:00Z,27.1507,-90.3072,15.4,22.0,11111222
BP,ioos:station:wmo:42907:1,2022-02-02T00:14:00Z,27.1507,-90.3072,15.3,22.0,11111222
BP,ioos:station:wmo:42907:1,2022-02-02T01:09:00Z,27.1507,-90.3072,15.4,22.0,11111222
BP,ioos:station:wmo:42907:1,2022-02-02T01:19:00Z,27.1507,-90.3072,15.4,22.0,11111222
BP,ioos:station:wmo:42907:1,2022-02-02T01:29:00Z,27.1507,-90.3072,15.6,22.0,11111222
BP,ioos:station:wmo:42907:1,2022-02-02T01:39:00Z,27.1507,-90.3072,15.6,22.0,11111222
BP,ioos:station:wmo:42907:1,2022-02-02T01:49:00Z,27.1507,-90.3072,15.5,22.0,11111222
BP,ioos:station:wmo:42907:1,2022-02-02T02:29:00Z,27.1507,-90.3072,15.5,22.0,11111222
BP,ioos:station:wmo:42907:1,2022-02-02T02:39:00Z,27.1507,-90.3072,15.5,21.9,11111222
BP,ioos:station:wmo:42907:1,2022-02-02T02:59:00Z,27.1507,-90.3072,15.5,22.0,11111222
BP,ioos:station:wmo:42907:1,2022-02-02T03:09:00Z,27.1507,-90.3072,15.6,22.0,11111222
BP,ioos:station:wmo:42907:1,2022-02-02T03:19:00Z,27.1507,-90.3072,15.6,22.0,11111222
BP,ioos:station:wmo:42907:1,2022-02-02T03:29:00Z,27.1507,-90.3072,15.6,22.0,11111222
BP,ioos:station:wmo:42907:1,2022-02-02T03:39:00Z,27.1507,-90.3072,15.5,22.0,11111222
BP,ioos:station:wmo:42907:1,2022-02-02T03:59:00Z,27.1507,-90.3072,15.5,21.9,11111222
BP,ioos:station:wmo:42907:1,2022-02-02T04:09:00Z,27.1507,-90.3072,15.6,21.9,11111222
BP,ioos:station:wmo:42907:1,2022-02-02T04:19:00Z,27.1507,-90.3072,15.5,21.9,11111222
BP,ioos:station:wmo:42907:1,2022-02-02T04:39:00Z,27.1507,-90.3072,15.4,21.9,11111222
BP,ioos:station:wmo:42907:1,2022-02-02T04:49:00Z,27.1507,-90.3072,15.4,21.9,11111222
BP,ioos:station:wmo:42907:1,2022-02-02T05:10:00Z,27.1507,-90.3072,15.6,21.9,11111222
BP,ioos:station:wmo:42907:1,2022-02-02T05:20:00Z,27.1507,-90.3072,15.7,21.9,11111222
BP,ioos:station:wmo:42907:1,2022-02-02T05:30:00Z,27.1507,-90.3072,15.7,21.9,11111222
BP,ioos:station:wmo:42907:1,2022-02-02T05:50:00Z,27.1507,-90.3072,15.6,21.9,11111222
BP,ioos:station:wmo:42907:1,2022-02-02T06:00:00Z,27.1507,-90.3072,15.6,21.9,11111222
BP,ioos:station:wmo:42907:1,2022-02-02T06:10:00Z,27.1507,-90.3072,15.6,21.9,11111222
BP,ioos:station:wmo:42907:1,2022-02-02T06:20:00Z,27.1507,-90.3072,15.6,21.9,11111222
BP,ioos:station:wmo:42907:1,2022-02-02T06:30:00Z,27.1507,-90.3072,15.6,21.9,11111222
BP,ioos:station:wmo:42907:1,2022-02-02T06:40:00Z,27.1507,-90.3072,15.5,21.9,11111222
BP,ioos:station:wmo:42907:1,2022-02-02T06:50:00Z,27.1507,-90.3072,15.5,21.9,11111222
BP,ioos:station:wmo:42907:1,2022-02-02T07:00:00Z,27.1507,-90.3072,15.4,21.9,11111222
BP,ioos:station:wmo:42907:1,2022-02-02T07:10:00Z,27.1507,-90.3072,15.5,21.9,11111222
BP,ioos:station:wmo:42907:1,2022-02-02T07:20:00Z,27.1507,-90.3072,15.6,21.9,11111222
BP,ioos:station:wmo:42907:1,2022-02-02T07:40:00Z,27.1507,-90.3072,15.5,21.9,11111222
BP,ioos:station:wmo:42907:1,2022-02-02T07:50:00Z,27.1507,-90.3072,15.5,21.9,11111222
BP,ioos:station:wmo:42907:1,2022-02-02T08:10:00Z,27.1507,-90.3072,15.5,22.0,11111222
BP,ioos:station:wmo:42907:1,2022-02-02T08:20:00Z,27.1507,-90.3072,15.6,22.0,11111222
BP,ioos:station:wmo:42907:1,2022-02-02T09:00:00Z,27.1507,-90.3072,15.8,22.0,11111222
BP,ioos:station:wmo:42907:1,2022-02-02T09:10:00Z,27.1507,-90.3072,15.8,22.0,11111222
BP,ioos:station:wmo:42907:1,2022-02-02T09:20:00Z,27.1507,-90.3072,15.9,22.0,11111222
BP,ioos:station:wmo:42907:1,2022-02-02T09:30:00Z,27.1507,-90.3072,15.8,22.0,11111222
BP,ioos:station:wmo:42907:1,2022-02-02T10:00:00Z,27.1507,-90.3072,15.9,22.0,11111222
BP,ioos:station:wmo:42907:1,2022-02-02T10:10:00Z,27.1507,-90.3072,15.9,22.0,11111222
BP,ioos:station:wmo:42907:1,2022-02-02T10:20:00Z,27.1507,-90.3072,15.9,22.0,11111222
BP,ioos:station:wmo:42907:1,2022-02-02T10:30:00Z,27.1507,-90.3072,16.0,22.0,11111222
BP,ioos:station:wmo:42907:1,2022-02-02T10:40:00Z,27.1507,-90.3072,15.8,22.0,11111222
BP,ioos:station:wmo:42907:1,2022-02-02T10:50:00Z,27.1507,-90.3072,15.6,22.0,11111222
BP,ioos:station:wmo:42907:1,2022-02-02T11:00:00Z,27.1507,-90.3072,15.7,22.0,11111222
BP,ioos:station:wmo:42907:1,2022-02-02T11:10:00Z,27.1507,-90.3072,15.8,22.0,11111222
BP,ioos:station:wmo:42907:1,2022-02-02T11:20:00Z,27.1507,-90.3072,15.8,22.0,11111222
BP,ioos:station:wmo:42907:1,2022-02-02T11:30:00Z,27.1507,-90.3072,15.7,22.1,11111222
BP,ioos:station:wmo:42907:1,2022-02-02T11:40:00Z,27.1507,-90.3072,15.6,22.1,11111222
BP,ioos:station:wmo:42907:1,2022-02-02T11:50:00Z,27.1507,-90.3072,15.6,22.0,11111222
BP,ioos:station:wmo:42907:1,2022-02-02T12:00:00Z,27.1507,-90.3072,15.6,22.0,11111222
BP,ioos:station:wmo:42907:1,2022-02-02T12:10:00Z,27.1507,-90.3072,15.5,22.1,11111222
BP,ioos:station:wmo:42907:1,2022-02-02T12:20:00Z,27.1507,-90.3072,15.5,22.1,11111222
BP,ioos:station:wmo:42907:1,2022-02-02T12:31:00Z,27.1507,-90.3072,15.6,22.1,11111222
BP,ioos:station:wmo:42907:1,2022-02-02T12:51:00Z,27.1507,-90.3072,15.6,22.1,11111222
BP,ioos:station:wmo:42907:1,2022-02-02T13:01:00Z,27.1507,-90.3072,15.7,22.2,11111222
BP,ioos:station:wmo:42907:1,2022-02-02T13:11:00Z,27.1507,-90.3072,15.7,22.2,11111222
BP,ioos:station:wmo:42907:1,2022-02-02T13:21:00Z,27.1507,-90.3072,15.9,22.2,11111222
BP,ioos:station:wmo:42907:1,2022-02-02T13:31:00Z,27.1507,-90.3072,15.6,22.2,11111222
BP,ioos:station:wmo:42907:1,2022-02-02T13:41:00Z,27.1507,-90.3072,15.6,22.2,11111222
BP,ioos:station:wmo:42907:1,2022-02-02T14:31:00Z,27.1507,-90.3072,15.6,22.3,11111222
BP,ioos:station:wmo:42907:1,2022-02-02T14:41:00Z,27.1507,-90.3072,15.5,22.3,11111222
BP,ioos:station:wmo:42907:1,2022-02-02T14:51:00Z,27.1507,-90.3072,15.6,22.3,11111222
BP,ioos:station:wmo:42907:1,2022-02-02T15:11:00Z,27.1507,-90.3072,15.6,22.3,11111222
BP,ioos:station:wmo:42907:1,2022-02-02T15:21:00Z,27.1507,-90.3072,15.5,22.3,11111222
BP,ioos:station:wmo:42907:1,2022-02-02T15:31:00Z,27.1507,-90.3072,15.6,22.3,11111222
BP,ioos:station:wmo:42907:1,2022-02-02T15:41:00Z,27.1507,-90.3072,15.5,22.2,11111222
BP,ioos:station:wmo:42907:1,2022-02-02T15:51:00Z,27.1507,-90.3072,15.5,22.2,11111222
BP,ioos:station:wmo:42907:1,2022-02-02T16:01:00Z,27.1507,-90.3072,15.6,22.1,11111222
BP,ioos:station:wmo:42907:1,2022-02-02T16:11:00Z,27.1507,-90.3072,15.6,22.2,11111222
BP,ioos:station:wmo:42907:1,2022-02-02T16:21:00Z,27.1507,-90.3072,15.6,22.1,11111222
BP,ioos:station:wmo:42907:1,2022-02-02T16:31:00Z,27.1507,-90.3072,15.6,22.1,11111222
BP,ioos:station:wmo:42907:1,2022-02-02T16:41:00Z,27.1507,-90.3072,15.6,22.1,11111222
BP,ioos:station:wmo:42907:1,2022-02-02T16:51:00Z,27.1507,-90.3072,15.8,22.1,11111222
BP,ioos:station:wmo:42907:1,2022-02-02T17:01:00Z,27.1507,-90.3072,15.8,22.1,11111222
BP,ioos:station:wmo:42907:1,2022-02-02T17:11:00Z,27.1507,-90.3072,15.6,22.1,11111222
BP,ioos:station:wmo:42907:1,2022-02-02T17:21:00Z,27.1507,-90.3072,15.6,22.0,11111222
BP,ioos:station:wmo:42907:1,2022-02-02T17:31:00Z,27.1507,-90.3072,15.5,22.0,11111222
BP,ioos:station:wmo:42907:1,2022-02-02T17:41:00Z,27.1507,-90.3072,15.5,22.0,11111222
BP,ioos:station:wmo:42907:1,2022-02-02T18:01:00Z,27.1507,-90.3072,15.4,22.2,11111222
BP,ioos:station:wmo:42907:1,2022-02-02T18:11:00Z,27.1507,-90.3072,15.5,22.2,11111222
BP,ioos:station:wmo:42907:1,2022-02-02T18:21:00Z,27.1507,-90.3072,15.4,22.2,11111222
BP,ioos:station:wmo:42907:1,2022-02-02T19:01:00Z,27.1507,-90.3072,15.2,22.1,11111222
BP,ioos:station:wmo:42907:1,2022-02-02T19:11:00Z,27.1507,-90.3072,15.2,22.1,11111222
BP,ioos:station:wmo:42907:1,2022-02-02T19:21:00Z,27.1507,-90.3072,15.3,22.1,11111222
BP,ioos:station:wmo:42907:1,2022-02-02T19:31:00Z,27.1507,-90.3072,15.2,22.2,11111222
BP,ioos:station:wmo:42907:1,2022-02-02T19:41:00Z,27.1507,-90.3072,15.3,22.2,11111222
BP,ioos:station:wmo:42907:1,2022-02-02T19:52:00Z,27.1507,-90.3072,15.3,22.2,11111222
BP,ioos:station:wmo:42907:1,2022-02-02T20:02:00Z,27.1507,-90.3072,15.3,22.2,11111222
BP,ioos:station:wmo:42907:1,2022-02-02T20:12:00Z,27.1507,-90.3072,15.3,22.2,11111222
BP,ioos:station:wmo:42907:1,2022-02-02T20:22:00Z,27.1507,-90.3072,15.3,22.2,11111222
BP,ioos:station:wmo:42907:1,2022-02-02T20:32:00Z,27.1507,-90.3072,15.3,22.2,11111222
BP,ioos:station:wmo:42907:1,2022-02-02T20:42:00Z,27.1507,-90.3072,15.3,22.2,11111222
BP,ioos:station:wmo:42907:1,2022-02-02T20:52:00Z,27.1507,-90.3072,15.3,22.2,11111222
BP,ioos:station:wmo:42907:1,2022-02-02T21:02:00Z,27.1507,-90.3072,15.3,22.2,11111222
BP,ioos:station:wmo:42907:1,2022-02-02T21:12:00Z,27.1507,-90.3072,15.4,22.2,11111222
BP,ioos:station:wmo:42907:1,2022-02-02T21:22:00Z,27.1507,-90.3072,15.4,22.2,11111222
BP,ioos:station:wmo:42907:1,2022-02-02T21:32:00Z,27.1507,-90.3072,15.3,22.2,11111222
BP,ioos:station:wmo:42907:1,2022-02-02T22:32:00Z,27.1507,-90.3072,15.3,22.1,11111222
BP,ioos:station:wmo:42907:1,2022-02-02T22:42:00Z,27.1507,-90.3072,15.4,22.1,11111222
BP,ioos:station:wmo:42907:1,2022-02-02T22:52:00Z,27.1507,-90.3072,15.2,22.1,11111222
BP,ioos:station:wmo:42907:1,2022-02-02T23:02:00Z,27.1507,-90.3072,15.3,22.1,11111222
BP,ioos:station:wmo:42907:1,2022-02-02T23:12:00Z,27.1507,-90.3072,15.3,22.1,11111222
BP,ioos:station:wmo:42907:1,2022-02-02T23:22:00Z,27.1507,-90.3072,15.2,22.1,11111222
BP,ioos:station:wmo:42907:1,2022-02-03T00:02:00Z,27.1507,-90.3072,15.3,22.1,11111222
BP,ioos:station:wmo:42907:1,2022-02-03T00:12:00Z,27.1507,-90.3072,15.3,22.1,11111222
BP,ioos:station:wmo:42907:1,2022-02-03T00:22:00Z,27.1507,-90.3072,15.3,22.1,11111222
BP,ioos:station:wmo:42907:1,2022-02-03T00:32:00Z,27.1507,-90.3072,15.1,22.1,11111222
BP,ioos:station:wmo:42907:1,2022-02-03T00:42:00Z,27.1507,-90.3072,15.2,22.1,11111222
BP,ioos:station:wmo:42907:1,2022-02-03T00:52:00Z,27.1507,-90.3072,15.1,22.1,11111222
BP,ioos:station:wmo:42907:1,2022-02-03T01:02:00Z,27.1507,-90.3072,15.2,22.1,11111222
BP,ioos:station:wmo:42907:1,2022-02-03T01:22:00Z,27.1507,-90.3072,15.4,22.1,11111222
BP,ioos:station:wmo:42907:1,2022-02-03T01:32:00Z,27.1507,-90.3072,15.4,22.1,11111222
BP,ioos:station:wmo:42907:1,2022-02-03T01:42:00Z,27.1507,-90.3072,15.2,22.1,11111222
BP,ioos:station:wmo:42907:1,2022-02-03T01:52:00Z,27.1507,-90.3072,15.4,22.1,11111222
BP,ioos:station:wmo:42907:1,2022-02-03T02:02:00Z,27.1507,-90.3072,15.3,22.1,11111222
BP,ioos:station:wmo:42907:1,2022-02-03T02:12:00Z,27.1507,-90.3072,15.2,22.1,11111222
BP,ioos:station:wmo:42907:1,2022-02-03T02:22:00Z,27.1507,-90.3072,15.1,22.1,11111222
BP,ioos:station:wmo:42907:1,2022-02-03T03:23:00Z,27.1507,-90.3072,15.2,22.1,11111222
BP,ioos:station:wmo:42907:1,2022-02-03T03:33:00Z,27.1507,-90.3072,15.3,22.1,11111222
BP,ioos:station:wmo:42907:1,2022-02-03T03:53:00Z,27.1507,-90.3072,15.3,22.1,11111222
BP,ioos:station:wmo:42907:1,2022-02-03T04:03:00Z,27.1507,-90.3072,15.5,22.0,11111222
BP,ioos:station:wmo:42907:1,2022-02-03T04:13:00Z,27.1507,-90.3072,15.7,22.1,11111222
BP,ioos:station:wmo:42907:1,2022-02-03T04:23:00Z,27.1507,-90.3072,15.6,22.1,11111222
BP,ioos:station:wmo:42907:1,2022-02-03T04:33:00Z,27.1507,-90.3072,15.6,22.1,11111222
BP,ioos:station:wmo:42907:1,2022-02-03T04:53:00Z,27.1507,-90.3072,15.5,22.1,11111222
BP,ioos:station:wmo:42907:1,2022-02-03T05:03:00Z,27.1507,-90.3072,15.6,22.1,11111222
BP,ioos:station:wmo:42907:1,2022-02-03T05:13:00Z,27.1507,-90.3072,15.6,22.1,11111222
BP,ioos:station:wmo:42907:1,2022-02-03T05:23:00Z,27.1507,-90.3072,15.7,22.1,11111222
BP,ioos:station:wmo:42907:1,2022-02-03T05:33:00Z,27.1507,-90.3072,15.7,22.1,11111222
BP,ioos:station:wmo:42907:1,2022-02-03T05:43:00Z,27.1507,-90.3072,15.6,22.1,11111222
BP,ioos:station:wmo:42907:1,2022-02-03T05:53:00Z,27.1507,-90.3072,15.5,22.2,11111222
BP,ioos:station:wmo:42907:1,2022-02-03T06:03:00Z,27.1507,-90.3072,15.5,22.1,11111222
BP,ioos:station:wmo:42907:1,2022-02-03T06:13:00Z,27.1507,-90.3072,15.6,22.1,11111222
BP,ioos:station:wmo:42907:1,2022-02-03T06:23:00Z,27.1507,-90.3072,15.7,22.1,11111222
BP,ioos:station:wmo:42907:1,2022-02-03T06:33:00Z,27.1507,-90.3072,15.8,22.1,11111222
BP,ioos:station:wmo:42907:1,2022-02-03T06:43:00Z,27.1507,-90.3072,15.8,22.1,11111222
BP,ioos:station:wmo:42907:1,2022-02-03T06:53:00Z,27.1507,-90.3072,15.7,22.1,11111222
BP,ioos:station:wmo:42907:1,2022-02-03T07:03:00Z,27.1507,-90.3072,15.5,22.1,11111222
BP,ioos:station:wmo:42907:1,2022-02-03T07:13:00Z,27.1507,-90.3072,15.5,22.1,11111222
BP,ioos:station:wmo:42907:1,2022-02-03T07:23:00Z,27.1507,-90.3072,15.6,22.1,11111222
BP,ioos:station:wmo:42907:1,2022-02-03T07:33:00Z,27.1507,-90.3072,15.6,22.1,11111222
BP,ioos:station:wmo:42907:1,2022-02-03T07:43:00Z,27.1507,-90.3072,15.7,22.1,11111222
BP,ioos:station:wmo:42907:1,2022-02-03T07:53:00Z,27.1507,-90.3072,15.6,22.1,11111222
BP,ioos:station:wmo:42907:1,2022-02-03T08:03:00Z,27.1507,-90.3072,15.6,22.1,11111222
BP,ioos:station:wmo:42907:1,2022-02-03T08:13:00Z,27.1507,-90.3072,15.7,22.1,11111222
BP,ioos:station:wmo:42907:1,2022-02-03T08:23:00Z,27.1507,-90.3072,15.5,22.1,11111222
BP,ioos:station:wmo:42907:1,2022-02-03T08:33:00Z,27.1507,-90.3072,15.6,22.1,11111222
BP,ioos:station:wmo:42907:1,2022-02-03T08:43:00Z,27.1507,-90.3072,15.5,22.1,11111222
BP,ioos:station:wmo:42907:1,2022-02-03T08:53:00Z,27.1507,-90.3072,15.5,22.1,11111222
BP,ioos:station:wmo:42907:1,2022-02-03T09:03:00Z,27.1507,-90.3072,15.5,22.1,11111222
BP,ioos:station:wmo:42907:1,2022-02-03T09:13:00Z,27.1507,-90.3072,15.4,22.1,11111222
BP,ioos:station:wmo:42907:1,2022-02-03T09:23:00Z,27.1507,-90.3072,15.4,22.1,11111222
BP,ioos:station:wmo:42907:1,2022-02-03T09:33:00Z,27.1507,-90.3072,15.5,22.1,11111222
BP,ioos:station:wmo:42907:1,2022-02-03T09:43:00Z,27.1507,-90.3072,15.5,22.1,11111222
BP,ioos:station:wmo:42907:1,2022-02-03T09:53:00Z,27.1507,-90.3072,15.4,22.1,11111222
BP,ioos:station:wmo:42907:1,2022-02-03T10:03:00Z,27.1507,-90.3072,15.3,22.2,11111222
BP,ioos:station:wmo:42907:1,2022-02-03T10:13:00Z,27.1507,-90.3072,15.5,22.2,11111222
BP,ioos:station:wmo:42907:1,2022-02-03T10:24:00Z,27.1507,-90.3072,15.4,22.2,11111222
BP,ioos:station:wmo:42907:1,2022-02-03T10:34:00Z,27.1507,-90.3072,15.1,22.2,11111222
BP,ioos:station:wmo:42907:1,2022-02-03T10:44:00Z,27.1507,-90.3072,15.6,22.1,11111222
BP,ioos:station:wmo:42907:1,2022-02-03T10:54:00Z,27.1507,-90.3072,15.5,22.1,11111222
BP,ioos:station:wmo:42907:1,2022-02-03T11:04:00Z,27.1507,-90.3072,15.7,22.1,11111222
BP,ioos:station:wmo:42907:1,2022-02-03T11:14:00Z,27.1507,-90.3072,15.5,22.1,11111222
BP,ioos:station:wmo:42907:1,2022-02-03T11:24:00Z,27.1507,-90.3072,15.5,22.1,11111222
BP,ioos:station:wmo:42907:1,2022-02-03T11:34:00Z,27.1507,-90.3072,15.7,22.2,11111222
BP,ioos:station:wmo:42907:1,2022-02-03T11:44:00Z,27.1507,-90.3072,15.6,22.2,11111222
BP,ioos:station:wmo:42907:1,2022-02-03T11:54:00Z,27.1507,-90.3072,15.6,22.2,11111222
BP,ioos:station:wmo:42907:1,2022-02-03T12:04:00Z,27.1507,-90.3072,15.5,22.2,11111222
BP,ioos:station:wmo:42907:1,2022-02-03T12:14:00Z,27.1507,-90.3072,15.5,22.2,11111222
BP,ioos:station:wmo:42907:1,2022-02-03T12:24:00Z,27.1507,-90.3072,15.4,22.2,11111222
BP,ioos:station:wmo:42907:1,2022-02-03T12:34:00Z,27.1507,-90.3072,15.5,22.2,11111222
BP,ioos:station:wmo:42907:1,2022-02-03T12:44:00Z,27.1507,-90.3072,15.5,22.2,11111222
BP,ioos:station:wmo:42907:1,2022-02-03T12:54:00Z,27.1507,-90.3072,15.6,22.2,11111222
BP,ioos:station:wmo:42907:1,2022-02-03T13:04:00Z,27.1507,-90.3072,15.7,22.2,11111222
BP,ioos:station:wmo:42907:1,2022-02-03T13:14:00Z,27.1507,-90.3072,15.6,22.1,11111222
BP,ioos:station:wmo:42907:1,2022-02-03T13:24:00Z,27.1507,-90.3072,15.5,22.1,11111222
BP,ioos:station:wmo:42907:1,2022-02-03T13:34:00Z,27.1507,-90.3072,15.5,22.1,11111222
BP,ioos:station:wmo:42907:1,2022-02-03T13:44:00Z,27.1507,-90.3072,15.7,22.1,11111222
BP,ioos:station:wmo:42907:1,2022-02-03T13:54:00Z,27.1507,-90.3072,15.7,22.1,11111222
BP,ioos:station:wmo:42907:1,2022-02-03T14:04:00Z,27.1507,-90.3072,15.7,22.1,11111222
BP,ioos:station:wmo:42907:1,2022-02-03T14:14:00Z,27.1507,-90.3072,15.5,22.1,11111222
BP,ioos:station:wmo:42907:1,2022-02-03T14:24:00Z,27.1507,-90.3072,15.5,22.2,11111222
BP,ioos:station:wmo:42907:1,2022-02-03T14:34:00Z,27.1507,-90.3072,15.6,22.2,11111222
BP,ioos:station:wmo:42907:1,2022-02-03T14:44:00Z,27.1507,-90.3072,15.5,22.2,11111222
BP,ioos:station:wmo:42907:1,2022-02-03T14:54:00Z,27.1507,-90.3072,15.3,22.2,11111222
BP,ioos:station:wmo:42907:1,2022-02-03T15:04:00Z,27.1507,-90.3072,15.2,22.2,11111222
BP,ioos:station:wmo:42907:1,2022-02-03T15:14:00Z,27.1507,-90.3072,15.4,22.2,11111222
BP,ioos:station:wmo:42907:1,2022-02-03T15:24:00Z,27.1507,-90.3072,15.5,22.2,11111222
BP,ioos:station:wmo:42907:1,2022-02-03T15:34:00Z,27.1507,-90.3072,15.5,22.2,11111222
BP,ioos:station:wmo:42907:1,2022-02-03T15:44:00Z,27.1507,-90.3072,15.5,22.1,11111222
BP,ioos:station:wmo:42907:1,2022-02-03T15:54:00Z,27.1507,-90.3072,15.5,22.1,11111222
BP,ioos:station:wmo:42907:1,2022-02-03T16:04:00Z,27.1507,-90.3072,15.4,22.1,11111222
BP,ioos:station:wmo:42907:1,2022-02-03T16:14:00Z,27.1507,-90.3072,15.2,22.1,11111222
BP,ioos:station:wmo:42907:1,2022-02-03T16:24:00Z,27.1507,-90.3072,15.3,22.1,11111222
BP,ioos:station:wmo:42907:1,2022-02-03T16:34:00Z,27.1507,-90.3072,15.4,22.1,11111222
BP,ioos:station:wmo:42907:1,2022-02-03T16:44:00Z,27.1507,-90.3072,15.4,22.1,11111222
BP,ioos:station:wmo:42907:1,2022-02-03T16:54:00Z,27.1507,-90.3072,15.3,22.1,11111222
BP,ioos:station:wmo:42907:1,2022-02-03T17:04:00Z,27.1507,-90.3072,15.4,22.1,11111222
BP,ioos:station:wmo:42907:1,2022-02-03T17:14:00Z,27.1507,-90.3072,15.6,22.1,11111222
BP,ioos:station:wmo:42907:1,2022-02-03T17:24:00Z,27.1507,-90.3072,15.5,22.1,11111222
BP,ioos:station:wmo:42907:1,2022-02-03T17:34:00Z,27.1507,-90.3072,15.5,22.2,11111222
BP,ioos:station:wmo:42907:1,2022-02-03T17:45:00Z,27.1507,-90.3072,15.5,22.2,11111222
BP,ioos:station:wmo:42907:1,2022-02-03T17:55:00Z,27.1507,-90.3072,15.7,22.2,11111222
BP,ioos:station:wmo:42907:1,2022-02-03T18:05:00Z,27.1507,-90.3072,15.5,22.2,11111222
BP,ioos:station:wmo:42907:1,2022-02-03T18:15:00Z,27.1507,-90.3072,15.3,22.2,11111222
BP,ioos:station:wmo:42907:1,2022-02-03T18:25:00Z,27.1507,-90.3072,15.3,22.2,11111222
BP,ioos:station:wmo:42907:1,2022-02-03T18:35:00Z,27.1507,-90.3072,15.3,22.2,11111222
BP,ioos:station:wmo:42907:1,2022-02-03T18:45:00Z,27.1507,-90.3072,15.2,22.3,11111222
BP,ioos:station:wmo:42907:1,2022-02-03T18:55:00Z,27.1507,-90.3072,15.2,22.3,11111222
BP,ioos:station:wmo:42907:1,2022-02-03T19:05:00Z,27.1507,-90.3072,15.2,22.3,11111222
BP,ioos:station:wmo:42907:1,2022-02-03T19:15:00Z,27.1507,-90.3072,15.2,22.3,11111222
BP,ioos:station:wmo:42907:1,2022-02-03T19:25:00Z,27.1507,-90.3072,15.2,22.3,11111222
BP,ioos:station:wmo:42907:1,2022-02-03T19:35:00Z,27.1507,-90.3072,15.3,22.3,11111222
BP,ioos:station:wmo:42907:1,2022-02-03T19:45:00Z,27.1507,-90.3072,15.2,22.3,11111222
BP,ioos:station:wmo:42907:1,2022-02-03T20:15:00Z,27.1507,-90.3072,15.3,22.3,11111222
BP,ioos:station:wmo:42907:1,2022-02-03T20:25:00Z,27.1507,-90.3072,15.4,22.3,11111222
BP,ioos:station:wmo:42907:1,2022-02-03T20:35:00Z,27.1507,-90.3072,15.5,22.3,11111222
BP,ioos:station:wmo:42907:1,2022-02-03T20:45:00Z,27.1507,-90.3072,15.5,22.3,11111222
BP,ioos:station:wmo:42907:1,2022-02-03T20:55:00Z,27.1507,-90.3072,15.5,22.3,11111222
BP,ioos:station:wmo:42907:1,2022-02-03T21:05:00Z,27.1507,-90.3072,15.4,22.3,11111222
BP,ioos:station:wmo:42907:1,2022-02-03T21:15:00Z,27.1507,-90.3072,15.4,22.3,11111222
BP,ioos:station:wmo:42907:1,2022-02-03T21:25:00Z,27.1507,-90.3072,15.2,22.3,11111222
BP,ioos:station:wmo:42907:1,2022-02-03T21:35:00Z,27.1507,-90.3072,15.6,22.3,11111222
BP,ioos:station:wmo:42907:1,2022-02-03T21:45:00Z,27.1507,-90.3072,15.5,22.3,11111222
BP,ioos:station:wmo:42907:1,2022-02-03T21:55:00Z,27.1507,-90.3072,15.5,22.3,11111222
BP,ioos:station:wmo:42907:1,2022-02-03T22:05:00Z,27.1507,-90.3072,15.4,22.3,11111222
BP,ioos:station:wmo:42907:1,2022-02-03T22:15:00Z,27.1507,-90.3072,15.5,22.3,11111222
BP,ioos:station:wmo:42907:1,2022-02-03T22:25:00Z,27.1507,-90.3072,15.5,22.3,11111222
BP,ioos:station:wmo:42907:1,2022-02-03T22:35:00Z,27.1507,-90.3072,15.5,22.3,11111222
BP,ioos:station:wmo:42907:1,2022-02-03T22:45:00Z,27.1507,-90.3072,15.2,22.2,11111222
BP,ioos:station:wmo:42907:1,2022-02-03T22:55:00Z,27.1507,-90.3072,15.5,22.2,11111222
BP,ioos:station:wmo:42907:1,2022-02-03T23:05:00Z,27.1507,-90.3072,15.5,22.2,11111222
BP,ioos:station:wmo:42907:1,2022-02-03T23:15:00Z,27.1507,-90.3072,15.6,22.2,11111222
BP,ioos:station:wmo:42907:1,2022-02-03T23:25:00Z,27.1507,-90.3072,15.7,22.2,11111222
BP,ioos:station:wmo:42907:1,2022-02-03T23:35:00Z,27.1507,-90.3072,15.7,22.1,11111222
BP,ioos:station:wmo:42907:1,2022-02-03T23:45:00Z,27.1507,-90.3072,15.5,22.1,11111222
BP,ioos:station:wmo:42907:1,2022-02-03T23:55:00Z,27.1507,-90.3072,15.5,22.1,11111222
BP,ioos:station:wmo:42907:1,2022-02-04T00:05:00Z,27.1507,-90.3072,15.5,22.1,11111222
BP,ioos:station:wmo:42907:1,2022-02-04T00:15:00Z,27.1507,-90.3072,15.5,22.2,11111222
BP,ioos:station:wmo:42907:1,2022-02-04T00:25:00Z,27.1507,-90.3072,15.4,22.2,11111222
BP,ioos:station:wmo:42907:1,2022-02-04T00:35:00Z,27.1507,-90.3072,15.5,22.3,11111222
BP,ioos:station:wmo:42907:1,2022-02-04T00:45:00Z,27.1507,-90.3072,15.5,22.3,11111222
BP,ioos:station:wmo:42907:1,2022-02-04T00:55:00Z,27.1507,-90.3072,15.7,22.3,11111222
BP,ioos:station:wmo:42907:1,2022-02-04T01:06:00Z,27.1507,-90.3072,15.5,22.3,11111222